TimeEDT,TemperatureF,Dew PointF,Humidity,Sea Level PressureIn,VisibilityMPH,Wind Direction,Wind SpeedMPH,Gust SpeedMPH,PrecipitationIn,Events,Conditions,WindDirDegrees,DateUTC
12:53 AM,51.1,44.1,77,29.93,10.0,Calm,Calm,-,0.00,,Overcast,0,2013-04-10 04:53:00
1:53 AM,45.0,39.9,82,29.95,10.0,NNW,9.2,-,N/A,,Overcast,340,2013-04-10 05:53:00
2:53 AM,45.0,39.9,82,29.96,10.0,North,4.6,-,N/A,,Overcast,350,2013-04-10 06:53:00
3:53 AM,45.0,41.0,86,29.94,9.0,ENE,4.6,-,0.00,,Mostly Cloudy,60,2013-04-10 07:53:00
4:53 AM,46.0,41.0,83,29.93,9.0,ENE,4.6,-,N/A,,Overcast,70,2013-04-10 08:53:00
5:53 AM,46.0,41.0,83,29.91,9.0,Calm,Calm,-,N/A,,Mostly Cloudy,0,2013-04-10 09:53:00
6:53 AM,46.9,42.1,83,29.91,8.0,Calm,Calm,-,N/A,,Overcast,0,2013-04-10 10:53:00
7:53 AM,48.0,43.0,83,29.90,8.0,South,5.8,-,N/A,,Overcast,180,2013-04-10 11:53:00
8:53 AM,53.1,46.0,77,29.89,8.0,SSW,6.9,-,N/A,,Mostly Cloudy,200,2013-04-10 12:53:00
9:53 AM,55.9,50.0,80,29.90,8.0,NNW,8.1,-,0.00,Rain,Light Rain,340,2013-04-10 13:53:00
10:35 AM,48.2,44.6,87,29.90,6.0,North,8.1,-,0.01,,Haze,360,2013-04-10 14:35:00
10:53 AM,50.0,44.1,80,29.92,7.0,NNE,9.2,-,0.01,,Partly Cloudy,30,2013-04-10 14:53:00
11:06 AM,50.0,44.6,82,29.90,8.0,NNE,6.9,-,N/A,Thunderstorm,Mostly Cloudy,20,2013-04-10 15:06:00
11:42 AM,48.2,44.6,87,29.94,1.5,North,6.9,-,0.13,Rain-Thunderstorm,Heavy Thunderstorms and Rain,350,2013-04-10 15:42:00
11:50 AM,48.2,46.4,93,29.90,0.5,NNE,6.9,-,0.32,Fog-Rain-Thunderstorm,Heavy Thunderstorms and Rain,30,2013-04-10 15:50:00
11:53 AM,48.0,46.0,93,29.93,0.8,NNE,9.2,-,0.32,Rain-Thunderstorm,Light Thunderstorms and Rain,20,2013-04-10 15:53:00
11:56 AM,48.2,46.4,93,29.92,2.0,NNE,9.2,-,0.00,Rain-Thunderstorm,Light Thunderstorms and Rain,20,2013-04-10 15:56:00
12:04 PM,48.2,46.4,93,29.90,3.0,East,4.6,-,0.03,Rain-Thunderstorm,Light Thunderstorms and Rain,90,2013-04-10 16:04:00
12:24 PM,50.0,46.4,87,29.91,5.0,NE,3.5,-,0.03,Thunderstorm,Overcast,50,2013-04-10 16:24:00
12:45 PM,50.0,46.4,87,29.88,4.0,Calm,Calm,-,0.04,Rain,Light Rain,0,2013-04-10 16:45:00
12:53 PM,50.0,48.0,93,29.90,4.0,Calm,Calm,-,0.04,,Mostly Cloudy,0,2013-04-10 16:53:00
1:02 PM,50.0,48.2,94,29.89,4.0,Calm,Calm,-,N/A,Thunderstorm,Scattered Clouds,0,2013-04-10 17:02:00
1:19 PM,51.8,48.2,88,29.88,4.0,South,5.8,-,0.00,,Scattered Clouds,190,2013-04-10 17:19:00
1:53 PM,55.0,52.0,89,29.87,4.0,South,4.6,-,0.00,,Overcast,180,2013-04-10 17:53:00
2:53 PM,57.0,53.1,87,29.86,5.0,North,16.1,27.6,N/A,,Overcast,350,2013-04-10 18:53:00
3:21 PM,48.2,46.4,93,29.85,4.0,North,13.8,17.3,N/A,,Mostly Cloudy,10,2013-04-10 19:21:00
3:53 PM,48.0,45.0,89,29.84,5.0,North,-9999.0,-,N/A,,Mostly Cloudy,0,2013-04-10 19:53:00
4:12 PM,48.2,44.6,87,29.83,6.0,North,-9999.0,-,N/A,Thunderstorm,Mostly Cloudy,0,2013-04-10 20:12:00
4:23 PM,48.2,44.6,87,29.86,5.0,Variable,6.9,-,0.01,Rain-Thunderstorm,Light Thunderstorms and Rain,0,2013-04-10 20:23:00
4:27 PM,48.2,44.6,87,29.91,2.5,NNW,20.7,39.1,0.10,Rain-Thunderstorm,Heavy Thunderstorms and Rain,340,2013-04-10 20:27:00
4:33 PM,46.4,44.6,93,29.93,1.0,NW,20.7,39.1,0.33,Rain-Thunderstorm,Heavy Thunderstorms and Rain,320,2013-04-10 20:33:00
4:41 PM,44.6,42.8,93,29.87,1.2,Variable,3.5,29.9,0.42,Rain-Thunderstorm,Thunderstorms and Rain,0,2013-04-10 20:41:00
4:45 PM,44.6,42.8,93,29.87,2.5,Variable,6.9,-,0.44,Rain-Thunderstorm,Thunderstorms and Rain,0,2013-04-10 20:45:00
4:53 PM,46.0,44.1,93,29.85,4.0,East,8.1,-,0.45,Rain-Thunderstorm,Light Thunderstorms and Rain,100,2013-04-10 20:53:00
4:57 PM,46.4,44.6,93,29.82,4.0,East,10.4,-,0.00,Rain-Thunderstorm,Light Rain,80,2013-04-10 20:57:00
5:16 PM,48.2,46.4,93,29.82,4.0,SSW,6.9,-,0.02,Rain,Light Rain,210,2013-04-10 21:16:00
5:40 PM,46.4,44.6,93,29.87,5.0,NNW,11.5,-,0.02,Rain-Thunderstorm,Light Rain,340,2013-04-10 21:40:00
5:53 PM,46.9,45.0,93,29.88,6.0,WSW,5.8,-,0.02,Rain-Thunderstorm,Light Rain,250,2013-04-10 21:53:00
6:21 PM,48.2,44.6,87,29.89,7.0,North,15.0,18.4,0.00,Thunderstorm,Overcast,350,2013-04-10 22:21:00
6:29 PM,44.6,42.8,93,29.91,3.0,North,18.4,-,0.00,,Overcast,10,2013-04-10 22:29:00
6:32 PM,42.8,41.0,93,29.91,3.0,NNE,17.3,-,0.00,Thunderstorm,Overcast,20,2013-04-10 22:32:00
6:41 PM,42.8,41.0,93,29.92,1.8,NNE,12.7,-,0.00,Thunderstorm,Overcast,30,2013-04-10 22:41:00
6:53 PM,43.0,42.1,97,29.92,0.5,NE,15.0,-,0.00,Fog-Rain-Thunderstorm,Light Rain,40,2013-04-10 22:53:00
7:05 PM,42.8,42.8,100,29.98,1.8,East,6.9,19.6,0.10,Rain-Thunderstorm,Heavy Rain,90,2013-04-10 23:05:00
7:16 PM,42.8,41.0,93,29.97,3.0,NE,15.0,-,0.15,Rain-Thunderstorm,Thunderstorms and Rain,40,2013-04-10 23:16:00
7:53 PM,43.0,41.0,93,29.99,5.0,NE,12.7,-,0.28,Rain-Thunderstorm,Thunderstorms and Rain,40,2013-04-10 23:53:00
8:17 PM,42.8,39.2,87,29.91,5.0,ENE,18.4,-,0.08,Rain,Rain,70,2013-04-11 00:17:00
8:53 PM,42.1,39.9,92,29.85,10.0,East,12.7,-,0.11,Rain,Light Rain,100,2013-04-11 00:53:00
9:31 PM,42.8,39.2,87,29.95,10.0,North,6.9,-,0.00,Rain,Light Rain,350,2013-04-11 01:31:00
9:53 PM,42.1,39.9,92,29.94,10.0,ENE,12.7,-,0.00,,Overcast,60,2013-04-11 01:53:00
10:53 PM,42.1,39.9,92,29.95,7.0,NNW,4.6,-,N/A,,Overcast,330,2013-04-11 02:53:00
11:53 PM,42.1,39.9,92,29.94,5.0,NNE,8.1,-,0.05,Rain,Light Rain,20,2013-04-11 03:53:00